Wallops Island, VA

7:10 AM EDT on June 27, 2017 (GMT -0400)
Wallops Flight Facility

Weather History for KWAL - August, 2013

Change the Weather History Date:

Thursday, August 29, 2013

  Actual Average Record
Temperature  
Mean Temperature 76 °F 74 °F  
Max Temperature 83 °F 82 °F 94 °F (2006)
Min Temperature 68 °F 66 °F 48 °F (1986)
Degree Days  
Heating Degree Days 0    
Month to date heating degree days 0  
Since 1 June heating degree days 0  
Since 1 July heating degree days 0  
Cooling Degree Days 11    
Month to date cooling degree days 322  
Year to date cooling degree days 1231  
Since 1 June cooling degree days 1100  
Growing Degree Days 26 (Base 50)    
Moisture  
Dew Point 66 °F    
Average Humidity 73    
Maximum Humidity 87    
Minimum Humidity 58    
Precipitation  
Precipitation 0.00 in 0.12 in 0.41 in (1998)
Month to date precipitation 1.74 3.97  
Year to date precipitation 29.36 27.17  
Sea Level Pressure  
Sea Level Pressure 29.92 in    
Wind  
Wind Speed 13 mph (NE)    
Max Wind Speed 25 mph    
Max Gust Speed 31 mph    
Visibility 9 miles    
Events      
T = Trace of Precipitation, MM = Missing Value Source: NWS Daily Summary

Daily Weather History Graph

Daily Weather History Graph

Search for Another Location

Airport or City:

Trip Planner

Search our weather history database for the weather conditions in past years. The results will help you decide how hot, cold, wet, or windy it might be!

Date:

Astronomy

Aug. 29, 2013 Rise Set
Actual Time 6:29 AM EDT 7:35 PM EDT
Civil Twilight 6:02 AM EDT 8:02 PM EDT
Nautical Twilight 5:30 AM EDT 8:34 PM EDT
Astronomical Twilight 4:56 AM EDT 9:07 PM EDT
Moon 12:22 AM EDT (8/29) 2:59 PM EDT (8/29)
Length of Visible Light 14h 00m
Length of Day
13h 05m
Last Quarter, 38% of the Moon is Illuminated
Aug 29
Last Quarter
Sep 5
New
Sep 12
First Quarter
Sep 19
Full
Sep 26
Last Quarter

Hourly Weather History & Observations

Time (EDT) Temp. Heat Index Dew Point Humidity Pressure Visibility Wind Dir Wind Speed Gust Speed Precip Events Conditions
12:54 AM 73.0 °F - 68.0 °F 84% 29.83 in 5.0 mi ENE 5.8 mph - N/A   Haze
1:54 AM 73.9 °F - 68.0 °F 82% 29.82 in 6.0 mi Calm Calm - N/A   Haze
2:20 AM 73.9 °F - 68.0 °F 82% 29.83 in 6.0 mi NE 3.5 mph - N/A   Haze
2:54 AM 73.9 °F - 68.0 °F 82% 29.82 in 6.0 mi NE 5.8 mph - N/A   Haze
3:54 AM 73.9 °F - 68.0 °F 82% 29.81 in 7.0 mi NNE 4.6 mph - N/A   Overcast
4:09 AM 73.9 °F - 68.0 °F 82% 29.82 in 6.0 mi NNE 3.5 mph - N/A   Haze
4:54 AM 73.9 °F - 68.0 °F 82% 29.82 in 6.0 mi NNE 4.6 mph - N/A   Haze
5:37 AM 73.9 °F - 68.0 °F 82% 29.84 in 6.0 mi NNE 8.1 mph - N/A   Haze
5:54 AM 73.9 °F - 69.1 °F 85% 29.83 in 6.0 mi NNE 6.9 mph - N/A   Haze
6:06 AM 75.0 °F - 69.1 °F 82% 29.85 in 6.0 mi NNE 5.8 mph - N/A   Haze
6:54 AM 75.9 °F - 69.1 °F 79% 29.85 in 8.0 mi ENE 13.8 mph - N/A   Overcast
7:02 AM 75.9 °F - 69.1 °F 79% 29.86 in 8.0 mi ENE 17.3 mph - N/A   Mostly Cloudy
7:18 AM 75.9 °F - 68.0 °F 76% 29.87 in 9.0 mi ENE 13.8 mph - N/A   Mostly Cloudy
7:54 AM 75.9 °F - 68.0 °F 76% 29.87 in 10.0 mi ENE 11.5 mph - N/A   Mostly Cloudy
8:12 AM 77.0 °F - 68.0 °F 74% 29.88 in 10.0 mi NE 9.2 mph - N/A   Scattered Clouds
8:47 AM 77.0 °F - 68.0 °F 74% 29.89 in 10.0 mi North 6.9 mph - N/A   Mostly Cloudy
8:54 AM 78.1 °F - 68.0 °F 71% 29.88 in 10.0 mi NNE 9.2 mph - N/A   Mostly Cloudy
9:22 AM 79.0 °F - 68.0 °F 69% 29.89 in 10.0 mi ENE 11.5 mph - N/A   Scattered Clouds
9:54 AM 81.0 °F 83.3 °F 66.9 °F 62% 29.89 in 10.0 mi ENE 15.0 mph - N/A   Partly Cloudy
10:54 AM 81.0 °F 83.8 °F 68.0 °F 65% 29.91 in 10.0 mi ENE 17.3 mph - N/A   Clear
11:54 AM 82.0 °F 84.9 °F 68.0 °F 62% 29.92 in 10.0 mi ENE 21.9 mph 27.6 mph N/A   Partly Cloudy
12:54 PM 82.0 °F 84.9 °F 68.0 °F 62% 29.94 in 10.0 mi East 21.9 mph - N/A   Partly Cloudy
1:54 PM 81.0 °F 83.3 °F 66.9 °F 62% 29.96 in 10.0 mi ENE 21.9 mph - N/A   Mostly Cloudy
2:54 PM 80.1 °F 82.1 °F 66.0 °F 62% 29.96 in 10.0 mi ENE 21.9 mph 27.6 mph N/A   Mostly Cloudy
3:22 PM 77.0 °F - 64.9 °F 66% 29.98 in 10.0 mi NE 15.0 mph - N/A   Overcast
3:54 PM 78.1 °F - 63.0 °F 60% 29.97 in 10.0 mi NE 16.1 mph - N/A   Overcast
4:54 PM 79.0 °F - 64.9 °F 62% 29.97 in 10.0 mi ENE 18.4 mph 24.2 mph N/A   Mostly Cloudy
5:14 PM 79.0 °F - 63.0 °F 58% 29.98 in 10.0 mi ENE 18.4 mph - N/A   Scattered Clouds
5:54 PM 77.0 °F - 64.0 °F 64% 29.98 in 10.0 mi ENE 16.1 mph 24.2 mph N/A   Partly Cloudy
6:44 PM 75.9 °F - 64.0 °F 67% 29.98 in 10.0 mi ENE 15.0 mph 23.0 mph N/A   Mostly Cloudy
6:54 PM 75.9 °F - 64.0 °F 67% 29.98 in 10.0 mi ENE 12.7 mph - N/A   Mostly Cloudy
7:19 PM 75.0 °F - 64.0 °F 69% 29.99 in 10.0 mi ENE 13.8 mph - N/A   Scattered Clouds
7:32 PM 75.0 °F - 64.0 °F 69% 29.99 in 10.0 mi ENE 16.1 mph - N/A   Mostly Cloudy
7:40 PM 73.9 °F - 64.0 °F 71% 30.00 in 10.0 mi ENE 16.1 mph - N/A   Scattered Clouds
7:54 PM 73.9 °F - 64.0 °F 71% 29.99 in 10.0 mi ENE 16.1 mph - N/A   Scattered Clouds
8:54 PM 73.9 °F - 64.0 °F 71% 30.01 in 10.0 mi ENE 11.5 mph - N/A   Scattered Clouds
9:01 PM 73.9 °F - 64.0 °F 71% 30.02 in 10.0 mi ENE 13.8 mph - N/A   Mostly Cloudy
9:38 PM 73.9 °F - 64.0 °F 71% 30.02 in 10.0 mi ENE 10.4 mph - N/A   Scattered Clouds
9:54 PM 73.0 °F - 64.0 °F 73% 30.01 in 10.0 mi East 13.8 mph - N/A   Partly Cloudy
10:54 PM 72.0 °F - 64.0 °F 76% 30.01 in 10.0 mi ENE 8.1 mph - N/A   Mostly Cloudy
11:04 PM 73.0 °F - 64.0 °F 73% 30.02 in 10.0 mi ENE 12.7 mph - N/A   Scattered Clouds
11:24 PM 71.1 °F - 63.0 °F 75% 30.02 in 10.0 mi NE 4.6 mph - N/A   Mostly Cloudy
11:54 PM 72.0 °F - 64.0 °F 76% 30.01 in 10.0 mi NNE 3.5 mph - N/A   Scattered Clouds